Volver al catálogo

FENGYUN 1C DEB

ActivoSSO
NORAD 35125·DEBRIS·🇨🇳 China

Lanzado May 10, 1999 desde Taiyuan Satellite Launch Center

Loading…

Próximos Pases (próximas 24 horas)

TLE

EnvejeciendoSource: Space-Track

Época: Sep 5, 2026, 05:33 UTC

1 35125U 99025DLD 26248.23154196  .00001422  00000-0  50964-3 0  9990
2 35125  98.2169 251.0188 0050254 215.6801 144.1023 14.34689307351017

Sigue FENGYUN 1C DEB en tiempo real con AllMySat

Download on the App Store